"���","����z","�����Y���z"
"2005-11-25","10000","72390313776"
"2005-11-28","10007","72441908753"
"2005-11-29","9931","72641809906"
"2005-11-30","9932","73068067056"
"2005-12-01","9921","73205085037"
"2005-12-02","10060","74425424682"
"2005-12-05","10159","75293879242"
"2005-12-06","10162","75443762292"
"2005-12-07","10188","75747007902"
"2005-12-08","10153","75613476402"
"2005-12-09","10098","75850041540"
"2005-12-12","10102","76118156877"
"2005-12-13","10057","75973449913"
"2005-12-14","10066","76165213820"
"2005-12-15","9908","75108574496"
"2005-12-16","9714","73695826895"
"2005-12-19","9718","73828974406"
"2005-12-20","9768","74382529755"
"2005-12-21","9840","75065556445"
"2005-12-22","9937","75896894096"
"2005-12-26","9824","75186683249"
"2005-12-27","9863","75588199309"
"2005-12-28","9925","76063708739"
"2005-12-29","9979","76477236057"
"2005-12-30","10005","76839941389"
"2006-01-04","9939","76409454329"
"2006-01-05","10084","77531332085"
"2006-01-06","10092","77587117043"
"2006-01-10","10097","77721157956"
"2006-01-11","10051","77425825085"
"2006-01-12","10071","77578848097"
"2006-01-13","10124","78102990324"
"2006-01-16","10062","77662824193"
"2006-01-17","10207","78896811228"
"2006-01-18","10191","78773246908"
"2006-01-19","10094","78036102166"
"2006-01-20","10236","79129892453"
"2006-01-23","10257","79284944328"
"2006-01-24","10215","79006445711"
"2006-01-25","10337","79952050310"
"2006-01-26","10414","80531086713"
"2006-01-27","10522","81391657322"
"2006-01-30","10675","82611121018"
"2006-01-31","10708","82934428005"
"2006-02-01","10695","82834827199"
"2006-02-02","10755","83299356056"
"2006-02-03","10733","83256196379"
"2006-02-06","10686","82997880777"
"2006-02-07","10838","84204451704"
"2006-02-08","10698","83128436756"
"2006-02-09","10695","83148673266"
"2006-02-10","10795","83954383975"
"2006-02-13","10703","83272632699"
"2006-02-14","10674","83066594983"
"2006-02-15","10716","83398670609"
"2006-02-16","10756","83723240211"
"2006-02-17","10807","84129250454"
"2006-02-20","10865","84598641608"
"2006-02-21","10933","85131743690"
"2006-02-22","10934","85134587799"
"2006-02-23","10915","84918958638"
"2006-02-24","10783","83911666033"
"2006-02-27","10242","79723196823"
"2006-02-28","10248","80492719785"
"2006-03-01","10177","79946613514"
"2006-03-02","10275","80904624750"
"2006-03-03","10358","81755138729"
"2006-03-06","10354","81879281729"
"2006-03-07","10388","82244035797"
"2006-03-08","10214","80996853185"
"2006-03-09","10108","80019030919"
"2006-03-10","10141","80417332387"
"2006-03-13","10242","81352795004"
"2006-03-14","10253","81594931686"
"2006-03-15","10201","81244771727"
"2006-03-16","10287","81991916704"
"2006-03-17","10230","81645854750"
"2006-03-20","10204","81500196877"
"2006-03-22","10227","81738558139"
"2006-03-23","10177","81435636851"
"2006-03-24","10273","82213930968"
"2006-03-27","10199","81706501017"
"2006-03-28","10189","81764530405"
"2006-03-29","10243","82020267242"
"2006-03-30","10267","82335215194"
"2006-03-31","10326","82857351548"
"2006-04-03","10413","83692263458"
"2006-04-04","10522","84567658708"
"2006-04-05","10486","84294675221"
"2006-04-06","10542","84798499870"
"2006-04-07","10597","85229905905"
"2006-04-10","10590","85087667820"
"2006-04-11","10603","85201109318"
"2006-04-12","10543","84712218835"
"2006-04-13","10546","84749042253"
"2006-04-14","10533","84601595147"
"2006-04-17","10501","84384769807"
"2006-04-18","10521","84539298533"
"2006-04-19","10594","85126228167"
"2006-04-20","10725","86307244750"
"2006-04-21","10763","86570072276"
"2006-04-24","10614","85405837948"
"2006-04-25","10451","84121344188"
"2006-04-26","10422","83926289939"
"2006-04-27","10476","84509019930"
"2006-04-28","10399","83854429634"
"2006-05-01","10387","83948531048"
"2006-05-02","10413","84155845559"
"2006-05-08","10520","85020559369"
"2006-05-09","10529","85195242553"
"2006-05-10","10531","85213902618"
"2006-05-11","10492","84920694986"
"2006-05-12","10373","83945567773"
"2006-05-15","10168","82289898229"
"2006-05-16","9962","80624112855"
"2006-05-17","9913","80191331717"
"2006-05-18","9951","80338748849"
"2006-05-19","9782","78950489549"
"2006-05-22","9809","79072323955"
"2006-05-23","9494","76524421748"
"2006-05-24","9592","77255473296"
"2006-05-25","9483","76275184524"
"2006-05-26","9504","76434812535"
"2006-05-29","9738","78319632486"
"2006-05-30","9751","78445734331"
"2006-05-31","9584","77098231668"
"2006-06-01","9550","76818389986"
"2006-06-02","9596","76973971532"
"2006-06-05","9632","77243928376"
"2006-06-06","9631","77171802179"
"2006-06-07","9594","76881106589"
"2006-06-08","9498","76046646182"
"2006-06-09","9342","74766075561"
"2006-06-12","9420","75282205421"
"2006-06-13","9305","74254097534"
"2006-06-14","9149","72941284985"
"2006-06-15","9195","73243509869"
"2006-06-16","9335","74226443429"
"2006-06-19","9522","75535385226"
"2006-06-20","9474","75123158733"
"2006-06-21","9363","74219182363"
"2006-06-22","9435","74808623443"
"2006-06-23","9550","75722497964"
"2006-06-26","9533","75597133932"
"2006-06-27","9485","75312218736"
"2006-06-28","9528","75703244247"
"2006-06-29","9612","76404278965"
"2006-06-30","9659","76836822676"
"2006-07-03","9777","77798719895"
"2006-07-04","9879","78615550691"
"2006-07-05","9950","79143941758"
"2006-07-06","9862","78442929597"
"2006-07-07","9925","78867538471"
"2006-07-10","9787","77692363491"
"2006-07-11","9849","78178836550"
"2006-07-12","9869","78305535955"
"2006-07-13","9984","79236386184"
"2006-07-14","9871","78332141573"
"2006-07-18","9829","77994223172"
"2006-07-19","9866","78230947680"
"2006-07-20","9950","78806159339"
"2006-07-21","10012","79281577147"
"2006-07-24","9922","78561956621"
"2006-07-25","9982","79018243430"
"2006-07-26","10041","79524719864"
"2006-07-27","10025","79397619760"
"2006-07-28","10096","79929856214"
"2006-07-31","10048","79526506596"
"2006-08-01","10025","78896158090"
"2006-08-02","9967","78320243728"
"2006-08-03","10069","79125122716"
"2006-08-04","10130","79402146125"
"2006-08-07","10094","79014659922"
"2006-08-08","10142","79373819940"
"2006-08-09","10218","79946835752"
"2006-08-10","10285","80437832264"
"2006-08-11","10282","80415425290"
"2006-08-14","10360","80956894326"
"2006-08-15","10366","80961020087"
"2006-08-16","10359","80892588633"
"2006-08-17","10404","81251452108"
"2006-08-18","10413","81282074779"
"2006-08-21","10369","80955573407"
"2006-08-22","10383","81067801626"
"2006-08-23","10415","81158017990"
"2006-08-24","10358","80700561797"
"2006-08-25","10091","78582272407"
"2006-08-28","10139","79239922938"
"2006-08-29","10141","79273005075"
"2006-08-30","10154","79373399063"
"2006-08-31","10241","79911105330"
"2006-09-01","10242","79908546415"
"2006-09-04","10261","79990268464"
"2006-09-05","10247","79845742413"
"2006-09-06","10299","80253143513"
"2006-09-07","10267","79901370218"
"2006-09-08","10191","79246244030"
"2006-09-11","10225","79478489647"
"2006-09-12","10151","78879993520"
"2006-09-13","10218","79371550911"
"2006-09-14","10290","79899522644"
"2006-09-15","10285","79839042766"
"2006-09-19","10395","80641900758"
"2006-09-20","10326","80093108575"
"2006-09-21","10270","79629565067"
"2006-09-22","10164","78744747152"
"2006-09-25","10106","78268334702"
"2006-09-26","10029","77651370358"
"2006-09-27","10154","78581672051"
"2006-09-28","10246","79275597535"
"2006-09-29","10334","79968228923"
"2006-10-02","10360","80144703585"
"2006-10-03","10341","79980804840"
"2006-10-04","10301","79578157615"
"2006-10-05","10310","79574015955"
"2006-10-06","10426","80401517658"
"2006-10-10","10530","81193623824"
"2006-10-11","10621","81852449020"
"2006-10-12","10627","81855692523"
"2006-10-13","10657","81993988726"
"2006-10-16","10782","82870978781"
"2006-10-17","10766","82547227543"
"2006-10-18","10711","82049972791"
"2006-10-19","10745","82228574799"
"2006-10-20","10730","82011310549"
"2006-10-23","10742","82056695489"
"2006-10-24","10771","81629621153"
"2006-10-25","10771","81440143305"
"2006-10-26","10793","81643221951"
"2006-10-27","10829","81625912072"
"2006-10-30","10741","80906430863"
"2006-10-31","10709","80615268235"
"2006-11-01","10698","80503343376"
"2006-11-02","10797","81194586497"
"2006-11-06","10884","81782079766"
"2006-11-07","10967","82322697112"
"2006-11-08","10948","82022907682"
"2006-11-09","10968","82127892973"
"2006-11-10","10999","82228536739"
"2006-11-13","10969","81826103323"
"2006-11-14","10969","81570455381"
"2006-11-15","11009","80897302469"
"2006-11-16","11069","80878072101"
"2006-11-17","11087","80821777340"
"2006-11-20","11022","80113816978"
"2006-11-21","11025","79812444340"
"2006-11-22","11063","79821854658"
"2006-11-24","10987","79198549801"
"2006-11-27","10123","72860938202"
"2006-11-28","10124","73897775345"
"2006-11-29","10079","73466764619"
"2006-11-30","10227","73983033390"
"2006-12-01","10241","73898712587"
"2006-12-04","10205","73418265333"
"2006-12-05","10277","73802362074"
"2006-12-06","10322","74039985861"
"2006-12-07","10373","74294687918"
"2006-12-08","10397","74322505504"
"2006-12-11","10472","74800116002"
"2006-12-12","10491","74781518677"
"2006-12-13","10435","74078772197"
"2006-12-14","10485","74353531660"
"2006-12-15","10606","75184009706"
"2006-12-18","10653","75365840362"
"2006-12-19","10671","75305459751"
"2006-12-20","10608","74727507794"
"2006-12-21","10685","75158601346"
"2006-12-22","10680","75103804611"
"2006-12-25","10714","75256282476"
"2006-12-26","10729","75312626367"
"2006-12-27","10761","75541654330"
"2006-12-28","10864","76262722584"
"2006-12-29","10928","76680883790"
"2007-01-04","11044","77521871904"
"2007-01-05","10881","76387757752"
"2007-01-09","10747","75470915510"
"2007-01-10","10720","75305470574"
"2007-01-11","10661","74953617244"
"2007-01-12","10798","75970902356"
"2007-01-15","10835","76201788461"
"2007-01-16","10954","76993299370"
"2007-01-17","10963","77052304996"
"2007-01-18","10945","76914982310"
"2007-01-19","11023","77427222352"
"2007-01-22","11068","77771416349"
"2007-01-23","11158","78405536890"
"2007-01-24","11224","78920692847"
"2007-01-25","11179","78593009512"
"2007-01-26","11183","78664554580"
"2007-01-29","11133","78306909869"
"2007-01-30","11075","77891892438"
"2007-01-31","11127","78326077165"
"2007-02-01","11066","77888505768"
"2007-02-02","11151","78522671955"
"2007-02-05","11203","78952896746"
"2007-02-06","11159","78679252045"
"2007-02-07","11207","79066519343"
"2007-02-08","11256","79409717536"
"2007-02-09","11297","79803690682"
"2007-02-13","11207","79238920905"
"2007-02-14","11171","78998970859"
"2007-02-15","11173","79063471321"
"2007-02-16","11153","78940289668"
"2007-02-19","11154","78981664806"
"2007-02-20","11191","79517456118"
"2007-02-21","11239","79857815499"
"2007-02-22","11306","80334338385"
"2007-02-23","11351","80735651753"
"2007-02-26","10268","73019965450"
"2007-02-27","10247","74629795013"
"2007-02-28","9848","71827260532"
"2007-03-01","9835","72039726287"
"2007-03-02","9681","71041325189"
"2007-03-05","9440","69618896723"
"2007-03-06","9260","68650038271"
"2007-03-07","9503","70449708986"
"2007-03-08","9424","70140627861"
"2007-03-09","9690","72432482832"
"2007-03-12","9760","73210828065"
"2007-03-13","9769","73507329351"
"2007-03-14","9580","72277337282"
"2007-03-15","9588","72542155440"
"2007-03-16","9648","73146824028"
"2007-03-19","9587","72804498908"
"2007-03-20","9774","74319438519"
"2007-03-22","9886","75242335027"
"2007-03-23","10000","76263566890"
"2007-03-26","9985","76217638082"
"2007-03-27","9999","76415250399"
"2007-03-28","9965","76239267646"
"2007-03-29","9824","75172458143"
"2007-03-30","10013","76653218962"
"2007-04-02","10014","76747530467"
"2007-04-03","9981","76560091914"
"2007-04-04","10154","77917220714"
"2007-04-05","10219","78446932839"
"2007-04-06","10251","78696525522"
"2007-04-09","10297","79103688678"
"2007-04-10","10333","79377990997"
"2007-04-11","10371","79666385726"
"2007-04-12","10388","79964631148"
"2007-04-13","10332","79647054683"
"2007-04-16","10401","80290517075"
"2007-04-17","10533","81374552047"
"2007-04-18","10441","80808056207"
"2007-04-19","10408","80625069440"
"2007-04-20","10381","80579412583"
"2007-04-23","10515","81493327549"
"2007-04-24","10452","81071206728"
"2007-04-25","10467","81273980899"
"2007-04-26","10522","81881355450"
"2007-04-27","10591","82434733170"
"2007-05-01","10447","81368706621"
"2007-05-02","10487","81924625616"
"2007-05-07","10678","83415299712"
"2007-05-08","10696","83987698272"
"2007-05-09","10621","83397341349"
"2007-05-10","10702","84522990601"
"2007-05-11","10616","84122399438"
"2007-05-14","10640","84393434621"
"2007-05-15","10736","85343055024"
"2007-05-16","10704","85251342579"
"2007-05-17","10847","86550546068"
"2007-05-18","10889","87084719220"
"2007-05-21","10901","87177609828"
"2007-05-22","10970","87793831389"
"2007-05-23","10978","87999213737"
"2007-05-24","10933","87883070805"
"2007-05-25","10117","81563469971"
"2007-05-28","10202","83628967122"
"2007-05-29","10218","83812333979"
"2007-05-30","10195","83619968616"
"2007-05-31","10174","84208732945"
"2007-06-01","10274","85640031505"
"2007-06-04","10398","86673739679"
"2007-06-05","10380","86822333108"
"2007-06-06","10361","86854149748"
"2007-06-07","10237","85795712872"
"2007-06-08","10194","85579530475"
"2007-06-11","10142","85361985687"
"2007-06-12","10220","86114462750"
"2007-06-13","10182","85909528329"
"2007-06-14","10298","87051028188"
"2007-06-15","10450","88411782289"
"2007-06-18","10598","89781836130"
"2007-06-19","10687","90577795965"
"2007-06-20","10692","90669226721"
"2007-06-21","10699","90686480657"
"2007-06-22","10738","91062101888"
"2007-06-25","10681","90582607860"
"2007-06-26","10619","90136464039"
"2007-06-27","10557","89612247946"
"2007-06-28","10553","89640494655"
"2007-06-29","10619","90316444462"
"2007-07-02","10662","90788775752"
"2007-07-03","10681","90989596540"
"2007-07-04","10746","91589381735"
"2007-07-05","10816","92187686538"
"2007-07-06","10819","92207635022"
"2007-07-09","10914","93175073604"
"2007-07-10","10980","93806658626"
"2007-07-11","10833","92585643149"
"2007-07-12","10881","92970475881"
"2007-07-13","11038","94379103222"
"2007-07-17","11002","94142423717"
"2007-07-18","11019","94387988116"
"2007-07-19","11001","94294738351"
"2007-07-20","11113","95379662171"
"2007-07-23","11036","94829054373"
"2007-07-24","11069","95220204658"
"2007-07-25","10910","93913094374"
"2007-07-26","10914","94031589038"
"2007-07-27","10581","91204436569"
"2007-07-30","10408","89802602617"
"2007-07-31","10488","90589955759"
"2007-08-01","10552","91233230239"
"2007-08-02","10412","90224617602"
"2007-08-03","10514","91109860216"
"2007-08-06","10326","89625399324"
"2007-08-07","10334","89770761696"
"2007-08-08","10363","90003142819"
"2007-08-09","10600","92076088659"
"2007-08-10","10305","89528270710"
"2007-08-13","10181","88450544317"
"2007-08-14","10192","88674515688"
"2007-08-15","10063","87537648685"
"2007-08-16","9793","85206600878"
"2007-08-17","9301","80899716353"
"2007-08-20","9384","81582010388"
"2007-08-21","9533","82289415956"
"2007-08-22","9452","81687765044"
"2007-08-23","9783","84686911448"
"2007-08-24","9872","85546746233"
"2007-08-27","9972","86541606744"
"2007-08-28","9978","86759684085"
"2007-08-29","9775","84993891792"
"2007-08-30","9975","86798522257"
"2007-08-31","10065","87589509967"
"2007-09-03","10175","88546780829"
"2007-09-04","10221","88966579430"
"2007-09-05","10274","89432111614"
"2007-09-06","10128","88152429595"
"2007-09-07","10238","89090236536"
"2007-09-10","9978","86825857342"
"2007-09-11","10023","87240374284"
"2007-09-12","10158","88366001357"
"2007-09-13","10230","89010041305"
"2007-09-14","10344","89939162194"
"2007-09-18","10305","89600128404"
"2007-09-19","10547","91680153624"
"2007-09-20","10747","93452411255"
"2007-09-21","10664","92762104544"
"2007-09-25","10783","93825270542"
"2007-09-26","10778","93902504331"
"2007-09-27","10921","95147921969"
"2007-09-28","11034","96257874446"
"2007-10-01","11008","95920959026"
"2007-10-02","11204","97675682476"
"2007-10-03","11237","97947439857"
"2007-10-04","11261","98125267144"
"2007-10-05","11217","97610251054"
"2007-10-09","11447","99667632099"
"2007-10-10","11568","100789686432"
"2007-10-11","11635","101344997931"
"2007-10-12","11722","102086995967"
"2007-10-15","11698","101654016164"
"2007-10-16","11741","102069927094"
"2007-10-17","11597","100818241248"
"2007-10-18","11623","101079885241"
"2007-10-19","11496","99945422610"
"2007-10-22","11187","97179790214"
"2007-10-23","11122","96696545340"
"2007-10-24","11402","98906780420"
"2007-10-25","11299","98037099795"
"2007-10-26","11418","99173877179"
"2007-10-29","11629","101019144558"
"2007-10-30","11866","103042715144"
"2007-10-31","11841","102711519127"
"2007-11-01","11990","103985662676"
"2007-11-02","11835","102606374082"
"2007-11-05","11792","102178698964"
"2007-11-06","11635","100829755278"
"2007-11-07","11781","101344388893"
"2007-11-08","11542","99268343510"
"2007-11-09","11608","99781640462"
"2007-11-12","11294","97087372136"
"2007-11-13","10952","94224288147"
"2007-11-14","11240","96701536345"
"2007-11-15","11379","97532077984"
"2007-11-16","11230","96264663989"
"2007-11-19","11262","96490521951"
"2007-11-20","11080","94919009148"
"2007-11-21","11092","94963826974"
"2007-11-22","10735","91785886464"
"2007-11-26","10116","86493885144"
"2007-11-27","10002","86488740633"
"2007-11-28","10089","87303357279"
"2007-11-29","10390","89935394027"
"2007-11-30","10454","90576975584"
"2007-12-03","10611","92055715654"
"2007-12-04","10582","91916865147"
"2007-12-05","10566","91818128383"
"2007-12-06","10802","93957369099"
"2007-12-07","10913","94969992288"
"2007-12-10","10906","94914006092"
"2007-12-11","10938","95154605309"
"2007-12-12","10808","94023971773"
"2007-12-13","10939","95116942924"
"2007-12-14","10824","94127966612"
"2007-12-17","10806","93977991293"
"2007-12-18","10523","91501165480"
"2007-12-19","10653","92618755691"
"2007-12-20","10722","93182843238"
"2007-12-21","10728","93212642618"
"2007-12-25","10991","95499131023"
"2007-12-26","11003","95709288560"
"2007-12-27","11083","96411460390"
"2007-12-28","11029","95939884730"
"2008-01-04","10610","92272857396"
"2008-01-07","10524","91524002578"
"2008-01-08","10522","91534013160"
"2008-01-09","10558","91797031077"
"2008-01-10","10722","93243054702"
"2008-01-11","10710","93113230112"
"2008-01-15","10537","91610635034"
"2008-01-16","10248","89079440845"
"2008-01-17","10036","87278422207"
"2008-01-18","9913","86143046349"
"2008-01-21","9925","86223137962"
"2008-01-22","9508","82598392865"
"2008-01-23","9517","82681818903"
"2008-01-24","9607","82927279242"
"2008-01-25","9678","83555266974"
"2008-01-28","9803","84769746203"
"2008-01-29","9756","84469914608"
"2008-01-30","9806","84976032151"
"2008-01-31","9699","84118321888"
"2008-02-01","9705","84233002595"
"2008-02-04","9893","85851330712"
"2008-02-05","9943","86291045840"
"2008-02-06","9815","85249488842"
"2008-02-07","9666","83965228565"
"2008-02-08","9683","84160878705"
"2008-02-12","9610","83527060028"
"2008-02-13","9728","84549932947"
"2008-02-14","9865","85638761978"
"2008-02-15","9898","85919644155"
"2008-02-18","9925","86091769437"
"2008-02-19","9980","86518319904"
"2008-02-20","9999","86677976103"
"2008-02-21","9949","86282200436"
"2008-02-22","9952","86257374724"
"2008-02-25","9891","85722146898"
"2008-02-26","9993","86623671964"
"2008-02-27","10018","86861921204"
"2008-02-28","10032","86886630530"
"2008-02-29","9890","85637548164"
"2008-03-03","9574","82897054588"
"2008-03-04","9512","82339774807"
"2008-03-05","9413","81471074219"
"2008-03-06","9500","82263715859"
"2008-03-07","9356","81004175142"
"2008-03-10","9187","79522182240"
"2008-03-11","9045","78296143897"
"2008-03-12","9330","80616057218"
"2008-03-13","9244","79753166230"
"2008-03-14","9032","77966811092"
"2008-03-17","8670","74765222191"
"2008-03-18","8386","72240208350"
"2008-03-19","8754","75250764713"
"2008-03-21","8588","73754552275"
"2008-03-24","8634","74059407394"
"2008-03-25","8740","74970149086"
"2008-03-26","8848","75951163897"
"2008-03-27","8745","75059035430"
"2008-03-28","8779","75374260143"
"2008-03-31","8875","76184679168"
"2008-04-01","8800","75479930807"
"2008-04-02","9027","77389639002"
"2008-04-03","9151","78442630984"
"2008-04-04","9191","78751755721"
"2008-04-07","9152","78404451741"
"2008-04-08","9263","79362265339"
"2008-04-09","9265","79383667830"
"2008-04-10","9153","78397815028"
"2008-04-11","9221","78977456976"
"2008-04-14","9172","78546747104"
"2008-04-15","9102","77953690917"
"2008-04-16","9218","78876947942"
"2008-04-17","9277","79355902168"
"2008-04-18","9360","80033761926"
"2008-04-21","9510","81233425651"
"2008-04-22","9492","80980643106"
"2008-04-23","9509","81120823489"
"2008-04-24","9531","81282963016"
"2008-04-25","9541","81341940888"
"2008-04-28","9619","82059037062"
"2008-04-30","9511","81131877271"
"2008-05-01","9596","81867667641"
"2008-05-02","9689","82646718085"
"2008-05-07","9791","83518754411"
"2008-05-08","9707","82801830250"
"2008-05-09","9608","81978486868"
"2008-05-12","9516","81148995981"
"2008-05-13","9630","82141657319"
"2008-05-14","9726","82960972665"
"2008-05-15","9775","83346683229"
"2008-05-16","9811","83591421097"
"2008-05-19","9846","83796976142"
"2008-05-20","9904","84260720070"
"2008-05-21","9763","83063468282"
"2008-05-22","9700","82464301374"
"2008-05-23","9741","82775521152"
"2008-05-26","9569","81296510336"
"2008-05-27","9530","80997362284"
"2008-05-28","9535","81039487643"
"2008-05-29","9678","82224573846"
"2008-05-30","9733","82652198095"
"2008-06-02","9748","82731226531"
"2008-06-03","9654","81900848082"
"2008-06-04","9607","81346406504"
"2008-06-05","9516","80452311697"
"2008-06-06","9659","81642170172"
"2008-06-09","9513","80360425859"
"2008-06-10","9601","80994154875"
"2008-06-11","9483","79946135816"
"2008-06-12","9454","79667050890"
"2008-06-13","9527","80231518321"
"2008-06-16","9550","80370632237"
"2008-06-17","9601","80707561826"
"2008-06-18","9648","81065059131"
"2008-06-19","9627","80880041471"
"2008-06-20","9592","80514732501"
"2008-06-23","9451","79260224095"
"2008-06-24","9447","79150685881"
"2008-06-25","9360","78389407176"
"2008-06-26","9495","79548516966"
"2008-06-27","9324","78062116653"
"2008-06-30","9241","77240145277"
"2008-07-01","9247","77262559320"
"2008-07-02","9117","76147089894"
"2008-07-03","9065","75666451511"
"2008-07-04","9031","75300643751"
"2008-07-07","9058","75451918803"
"2008-07-08","9138","76112254694"
"2008-07-09","9126","75888913202"
"2008-07-10","9150","76019938204"
"2008-07-11","9206","76409847880"
"2008-07-14","9127","75738294359"
"2008-07-15","9094","75461696092"
"2008-07-16","8864","73529626847"
"2008-07-17","8914","73883410942"
"2008-07-18","9074","75142607933"
"2008-07-22","9185","75986672115"
"2008-07-23","9240","76436058468"
"2008-07-24","9368","77423402522"
"2008-07-25","9188","75872697491"
"2008-07-28","9158","75674158115"
"2008-07-29","9116","75256449112"
"2008-07-30","9146","75497764687"
"2008-07-31","9279","76603963281"
"2008-08-01","9253","76367914595"
"2008-08-04","9238","76171484110"
"2008-08-05","9188","75753399739"
"2008-08-06","9199","75797585071"
"2008-08-07","9338","76859271980"
"2008-08-08","9322","76646626854"
"2008-08-11","9259","76085860174"
"2008-08-12","9266","76016681346"
"2008-08-13","9164","75150813265"
"2008-08-14","9185","75268476935"
"2008-08-15","9218","75566932987"
"2008-08-18","9171","75059268717"
"2008-08-19","9090","74431426022"
"2008-08-20","9029","73913384921"
"2008-08-21","9141","74800877813"
"2008-08-22","9058","74050697134"
"2008-08-25","9117","74534647273"
"2008-08-26","9019","73725161511"
"2008-08-27","8984","73442054063"
"2008-08-28","9081","74273501018"
"2008-08-29","9042","73812190133"
"2008-09-01","8995","73384693108"
"2008-09-02","8924","72765296986"
"2008-09-03","8922","72755560753"
"2008-09-04","8787","71493553500"
"2008-09-05","8490","68994036113"
"2008-09-08","8563","69480439384"
"2008-09-09","8571","69441480556"
"2008-09-10","8322","67386139077"
"2008-09-11","8330","67457884193"